{"data":{"norad_id":52287,"epoch":"2026-05-25T05:26:15.589248Z","epoch_age_seconds":51323,"freshness":"FRESH","line1":"1 52287U 22041AC  26145.22656932  .00004382  00000+0  29342-3 0  9995","line2":"2 52287  53.2149 125.5317 0001261  83.1791 276.9344 15.08815841225929","mean_motion":15.08815841,"eccentricity":0.0001261,"inclination_deg":53.2149,"raan_deg":125.5317,"arg_perigee_deg":83.1791,"mean_anomaly_deg":276.9344,"bstar":0.00029342,"rev_number":22592,"period_min":95.439082813818,"perigee_km":538.94488031852,"apogee_km":540.68958837642,"semimajor_km":6917.9542343475,"source":"CELESTRAK","updated_at":"2026-05-25T13:38:17.085119Z"}}